Home   Weather   Bijar   Past weeks

Flag for Iran Past Weather in Bijar, Iran — Yesterday and Last 2 Weeks

Now
50 °F

Sunny.


Feels Like: 48 °F
Forecast: 40 / 72 °F
Wind: 5 mph from West

Location: Sanandaj Airport

Current Time: Apr 26, 2017 at 8:42:42 am

Latest Report: Apr 26, 2017 at 8:00 am


Visibility: 10 mi

Pressure: 30.15 "Hg (23.89 "Hg at 1927m altitude)

Humidity: 62%

Dew Point: 37 °F

Location of BijarLocation

Past Weather in Bijar — Graph

°F

Bijar Temperature Yesterday

Maximum temperature yesterday: 75 °F (at 2:30 pm)
Minimum temperature yesterday: 48 °F (at 4:21 am)
Average temperature yesterday: 60 °F

High & Low Weather Summary for the Past Weeks

 TemperatureHumidityPressure
High82 °F (Apr 22, 3:30 pm)94% (Apr 12, 4:21 am)30.21 "Hg (Apr 12, 4:21 am)
Low39 °F (Apr 17, 6:30 am)8% (Apr 13, 2:24 am)29.92 "Hg (Apr 24, 2:30 pm)
Average59 °F55%30.08 "Hg
* Reported Apr 11 6:30 am — Apr 26 7:00 am, Bijar, Weather by CustomWeather, © 2017

Note: Actual official high and low records may vary slightly from our data, if they occured in-between our weather recording intervals... More about our weather records

Advertising

Bijar Weather History for the Previous 24 Hours

Scroll right to see more
 ConditionsComfort  
Time TempWeatherWind HumidityBarometerVisibility
7:00 am
Wed, Apr 26
41 °FClear.5 mph76%30.12 "Hg10 mi
6:30 am43 °FClear.5 mph57%30.09 "Hg10 mi
5:22 am43 °FClear.5 mph66%30.09 "Hg10 mi
4:21 am43 °FClear.2 mph71%30.07 "Hg10 mi
3:21 am43 °FClear.No wind87%30.07 "Hg6 mi
2:22 am46 °FClear.No wind71%30.07 "Hg6 mi
1:22 am46 °FClear.No wind76%30.07 "Hg6 mi
12:21 am52 °FClear.No wind62%30.07 "Hg6 mi
11:22 pm
Tue, Apr 25
54 °FClear.2 mph58%30.04 "Hg6 mi
10:25 pm57 °FClear.2 mph48%30.04 "Hg6 mi
9:24 pm61 °FClear.2 mph45%30.01 "Hg6 mi
8:22 pm63 °FSunny.5 mph49%29.98 "Hg10 mi
7:21 pm68 °FScattered clouds.7 mph33%29.98 "Hg6 mi
6:21 pm70 °FBroken clouds.7 mph33%29.95 "Hg5 mi
5:20 pm72 °FBroken clouds.12 mph31%29.95 "Hg5 mi
4:30 pm73 °FBroken clouds.16 mph25%29.95 "Hg5 mi
3:30 pm73 °FBroken clouds.14 mph29%29.95 "Hg5 mi
2:30 pm75 °FScattered clouds.18 mph29%29.98 "Hg4 mi
1:30 pm73 °FScattered clouds.14 mph33%29.98 "Hg4 mi
12:30 pm70 °FPassing clouds.2 mph43%30.01 "Hg4 mi
11:30 am64 °FPassing clouds.2 mph60%30.01 "Hg4 mi
10:30 am59 °FScattered clouds.No wind68%30.01 "Hg4 mi
9:30 am55 °FScattered clouds.5 mph77%30.01 "Hg4 mi
8:30 am50 °FScattered clouds.No wind94%30.01 "Hg4 mi
Weather by CustomWeather, © 2017

See weather overviewHow to use our weather pages